Change the Weather History Date:

Saturday, November 12, 2011

  Actual Average Record
Temperature  
Mean Temperature 37 °F 36 °F  
Max Temperature 44 °F 43 °F 59 °F (1999)
Min Temperature 30 °F 28 °F 12 °F (1985)
Degree Days  
Heating Degree Days 28 30  
Month to date heating degree days 338 330  
Since 1 July heating degree days 803 1286  
Cooling Degree Days 0 0  
Month to date cooling degree days 0 0  
Year to date cooling degree days 631 249  
Moisture  
Dew Point 27 °F    
Average Humidity 67    
Maximum Humidity 85    
Minimum Humidity 49    
Precipitation  
Precipitation T in 0.08 in 0.39 in (1962)
Month to date precipitation 0.01 0.78  
Year to date precipitation 5.96 13.12  
Snow  
Snow 0.00 in 0.20 in - ()
Month to date snowfall 1.2  
Since 1 July snowfall 1.3  
Since 1 September snowfall 1.3  
Snow Depth -    
Sea Level Pressure  
Sea Level Pressure 29.66 in    
Wind  
Wind Speed 6 mph (NNW)    
Max Wind Speed 17 mph    
Max Gust Speed 20 mph    
Visibility 10 miles    
Events      
T = Trace of Precipitation, MM = Missing Value Source: NWS Daily Summary

Daily Weather History Graph

Daily Weather History Graph

Search for Another Location

Airport or City:

Trip Planner

Search our weather history database for the weather conditions in past years. The results will help you decide how hot, cold, wet, or windy it might be!

Date:

Astronomy

Nov. 12, 2011 Rise Set
Actual Time 7:00 AM PST 4:28 PM PST
Civil Twilight 6:27 AM PST 5:01 PM PST
Nautical Twilight 5:50 AM PST 5:38 PM PST
Astronomical Twilight 5:14 AM PST 6:14 PM PST
Moon 5:40 PM PST (11/12) 8:55 AM PST (11/12)
Length of Visible Light 10h 34m
Length of Day
9h 27m
Waning Gibbous, 96% of the Moon is Illuminated
Nov 12
Waning Gibbous
Nov 18
Last Quarter
Nov 24
New
Dec 2
First Quarter
Dec 10
Full

Hourly Weather History & Observations

Time (PST) Temp. Windchill Dew Point Humidity Pressure Visibility Wind Dir Wind Speed Gust Speed Precip Events Conditions
12:55 AM 37.0 °F 29.3 °F 26.1 °F 65% 29.58 in 10.0 mi NW 11.5 mph - N/A   Clear
2:55 AM 37.0 °F 28.5 °F 23.0 °F 57% 29.65 in 10.0 mi NW 13.8 mph - N/A   Clear
4:55 AM 37.0 °F 29.8 °F 24.1 °F 59% 29.71 in 10.0 mi NW 10.4 mph - N/A   Clear
5:55 AM 36.0 °F 27.1 °F 24.1 °F 62% 29.74 in 10.0 mi NW 13.8 mph - N/A   Clear
6:55 AM 36.0 °F 30.3 °F 23.0 °F 59% 29.75 in 10.0 mi North 6.9 mph - N/A   Clear
7:55 AM 37.0 °F 32.4 °F 25.0 °F 62% 29.78 in 10.0 mi West 5.8 mph - N/A   Clear
8:55 AM 39.0 °F - 26.1 °F 60% 29.78 in 10.0 mi Calm Calm - N/A   Clear
9:55 AM 39.0 °F 35.7 °F 27.0 °F 62% 29.77 in 10.0 mi WSW 4.6 mph - N/A   Scattered Clouds
10:55 AM 41.0 °F 35.2 °F 27.0 °F 57% 29.78 in 10.0 mi WNW 9.2 mph - N/A   Overcast
11:55 AM 39.0 °F 35.7 °F 28.0 °F 65% 29.75 in 9.0 mi SW 4.6 mph - N/A   Overcast
12:55 PM 42.1 °F - 27.0 °F 55% 29.70 in 10.0 mi Calm Calm - N/A   Clear
1:55 PM 44.1 °F 39.0 °F 27.0 °F 51% 29.68 in 10.0 mi East 9.2 mph - N/A   Scattered Clouds
2:55 PM 44.1 °F 40.8 °F 27.0 °F 51% 29.65 in 10.0 mi East 5.8 mph - N/A   Mostly Cloudy
3:55 PM 43.0 °F 39.5 °F 28.0 °F 56% 29.65 in 10.0 mi NNE 5.8 mph - N/A   Overcast
4:55 PM 44.1 °F - 28.9 °F 55% 29.64 in 10.0 mi Calm Calm - N/A   Overcast
6:55 PM 39.9 °F 37.8 °F 28.0 °F 63% 29.59 in 10.0 mi South 3.5 mph - N/A   Clear
7:55 PM 34.0 °F - 28.0 °F 79% 29.56 in 10.0 mi Calm Calm - N/A   Clear
8:55 PM 32.0 °F 27.5 °F 28.0 °F 85% 29.54 in 10.0 mi ENE 4.6 mph - 0.00 in   Mostly Cloudy
9:55 PM 32.0 °F 27.5 °F 28.0 °F 85% 29.50 in 10.0 mi East 4.6 mph - 0.00 in   Partly Cloudy
10:55 PM 32.0 °F 27.5 °F 28.0 °F 85% 29.48 in 10.0 mi ENE 4.6 mph - N/A   Partly Cloudy